This is the latest recevied weather packets stored in our database for station/object WZ8H. If no packets are shown the sender has not sent any weather packets the latest 10 day(s).
| Time | Temp. | Humidity | Pressure | Rain* | Wind** | Luminosity | Snow |
|---|---|---|---|---|---|---|---|
| 1778111218 | 10.56° C | 74% | 1012.2 hPa | 0 mm | - | 35 W/m² | - |
| 1778110913 | 10.56° C | 75% | 1012.2 hPa | 0 mm | - | 39 W/m² | - |
| 1778110600 | 10.56° C | 75% | 1012.1 hPa | 0 mm | - | 47 W/m² | - |
| 1778110300 | 11.11° C | 74% | 1012.2 hPa | 0 mm | - | 56 W/m² | - |
| 1778110000 | 11.11° C | 74% | 1012.1 hPa | 0 mm | - | 74 W/m² | - |
| 1778109700 | 11.11° C | 73% | 1012.1 hPa | 0 mm | - | 84 W/m² | - |
| 1778109400 | 11.11° C | 72% | 1012 hPa | 0 mm | - | 86 W/m² | - |
| 1778109087 | 11.67° C | 72% | 1012.1 hPa | 0 mm | - | 91 W/m² | - |
| 1778108785 | 11.67° C | 71% | 1012.2 hPa | 0 mm | - | 114 W/m² | - |
| 1778108463 | 12.22° C | 68% | 1012.1 hPa | 0 mm | - | 151 W/m² | - |
| 1778108137 | 11.67° C | 60% | 1012 hPa | 0 mm | - | 134 W/m² | - |
| 1778107822 | 11.67° C | 56% | 1012.1 hPa | 0 mm | - | 107 W/m² | - |
| 1778107495 | 11.67° C | 57% | 1012 hPa | 0 mm | - | 93 W/m² | - |
| 1778107176 | 11.67° C | 58% | 1012 hPa | 0 mm | - | 105 W/m² | - |
| 1778106860 | 11.67° C | 58% | 1012 hPa | 0 mm | - | 105 W/m² | - |
| 1778106535 | 11.67° C | 57% | 1012.2 hPa | 0 mm | - | 123 W/m² | - |
| 1778106213 | 11.67° C | 58% | 1012.2 hPa | 0 mm | - | 125 W/m² | - |
| 1778105914 | 11.67° C | 59% | 1012.3 hPa | 0 mm | - | 116 W/m² | - |
| 1778105605 | 11.67° C | 58% | 1012.3 hPa | 0 mm | - | 116 W/m² | - |
| 1778105303 | 11.67° C | 56% | 1012.2 hPa | 0 mm | - | 98 W/m² | - |
| 1778105004 | 11.67° C | 57% | 1012.2 hPa | 0 mm | - | 98 W/m² | - |
| 1778104683 | 11.67° C | 56% | 1012.1 hPa | 0 mm | - | 88 W/m² | - |
| 1778104385 | 11.67° C | 56% | 1012 hPa | 0 mm | - | 83 W/m² | - |
| 1778104081 | 11.67° C | 56% | 1012.1 hPa | 0 mm | - | 95 W/m² | - |
| 1778103777 | 11.67° C | 56% | 1012 hPa | 0 mm | - | 90 W/m² | - |
* Rain latest hour (hover to see other rain measurements)
** Current wind speed in m/s (hover to see current wind gust speed)